391  
NZUS99 KSGF 241007  
HRRSGF  
 
HOURLY WEATHER  
NATIONAL WEATHER SERVICE SPRINGFIELD MO  
400 AM CST SAT FEB 24 2018  
   
.....SGF CWA...
 
 
 
CITY SKY/WX TMP DP RH WIND PRES REMARKS  
SPRINGFIELD RAIN 50 49 96 SE14 29.93F FOG  
JOPLIN CLOUDY 40 40 100 CALM 29.94F FOG  
WEST PLAINS CLOUDY 48 47 96 VRB5G16 29.97F  
ROLLA HVY RAIN 42 42 100 E21 29.96F FOG  
OSAGE BEACH LGT RAIN 40 39 97 N6 29.98R  
   
.....SURROUNDING SGF CWA...
 
 
 
CITY SKY/WX TMP DP RH WIND PRES REMARKS  
CHANUTE CLOUDY 36 35 96 NE10 29.96F FOG WCI 28  
PARSONS CLOUDY 37 37 100 NE6 29.96F FOG WCI 32  
COFFEYVILLE CLOUDY 38 38 100 N5 29.95F FOG WCI 34  
EMPORIA CLOUDY 32 31 96 E9 29.96F FOG WCI 24  
GROVE OK CLOUDY 45 45 100 CALM 29.94F FOG  
ROGERS AR LGT RAIN 49 48 97 E5 29.94F  
SILOAM SPRINGS LGT RAIN 52 51 97 SE6 29.93F  
HARRISON AR LGT RAIN 48 48 100 NE3 29.95F  
NEAR YELLVILLE CLOUDY 50 49 96 CALM 29.96F FOG  
   
.....KANSAS AND MISSOURI...
 
 
 
CITY SKY/WX TMP DP RH WIND PRES REMARKS  
KANSAS CTY INT LGT RAIN 34 32 92 NE12 30.01F FOG WCI 25  
DOWNTOWN KC MIX PCPN 36 33 89 E9 30.00F FOG WCI 29  
COLUMBIA LGT RAIN 37 36 96 NE10 30.03R WCI 30  
SEDALIA MIX PCPN 37 37 100 NE9 30.02F FOG WCI 30  
ST JOSEPH CLOUDY 31 30 96 E10 30.04F FOG WCI 22  
ST LOUIS HVY RAIN 40 39 97 E12 30.09R FOG WCI 33  
SPIRIT OF STL HVY RAIN 40 40 100 E9 30.05F FOG WCI 34  
KIRKSVILLE FRZ RAIN 31 30 96 NE14 30.08F FOG WCI 21  
WICHITA DRIZZLE 33 33 100 NE8 29.93F FOG WCI 26  
TOPEKA CLOUDY 34 34 100 E10 29.99F FOG WCI 26  
OLATHE CLOUDY 33 33 100 E12 29.98F FOG WCI 24  
   
.....TENNESSEE...
 
 
 
CITY SKY/WX TMP DP RH WIND PRES REMARKS  
MEMPHIS DRIZZLE 64 64 100 S9 30.01F FOG  
NASHVILLE CLOUDY 61 59 93 CALM 30.08F  
   
.....ARKANSAS....
 
 
 
CITY SKY/WX TMP DP RH WIND PRES REMARKS  
FAYETTEVILLE LGT RAIN 51 51 100 CALM 29.95F  
FT SMITH LGT RAIN 53 53 100 NE5 29.94F FOG  
LITTLE ROCK FOG 53 53 100 CALM 29.98F VSB 1/8  
   
.....OKLAHOMA....
 
 
 
CITY SKY/WX TMP DP RH WIND PRES REMARKS  
TULSA FOG 40 40 100 NW3 29.94F VSB 1/2  
PONCA CITY CLOUDY 36 34 92 NE8 29.92F FOG WCI 30  
MCALESTER CLOUDY 48 48 100 CALM 29.94F  
OKLAHOMA CITY FOG 38 38 100 CALM 29.92F VSB 1/2  
   
.....IOWA.........
 
 
 
CITY SKY/WX TMP DP RH WIND PRES REMARKS  
DES MOINES PTCLDY 24 20 84 NE6 30.13F WCI 17  
QUAD CITIES CLOUDY 30 25 81 NE9 30.15F WCI 22  
   
.....ILLINOIS.....
 
 
 
CITY SKY/WX TMP DP RH WIND PRES REMARKS  
QUINCY LGT RAIN 34 31 88 NE16 30.08F FOG WCI 24  
CHICAGO CLOUDY 33 28 81 NE10 30.21F WCI 25  
 
CLICK HERE TO GO TO PREVIOUS BULLETINS.

The Nexlab MO Page
The Nexlab KS Page Main Text Page